This is the latest recevied weather packets stored in our database for station/object G6UIM. If no packets are shown the sender has not sent any weather packets the latest 10 day(s).
| Time | Temp. | Humidity | Pressure | Rain* | Wind** | Luminosity | Snow |
|---|---|---|---|---|---|---|---|
| 1777452057 | 12.22° C | 75% | 1021 hPa | 0 mm | - | 577 W/m² | - |
| 1777447816 | 10.56° C | 76% | 1021.1 hPa | 0 mm | - | 473 W/m² | - |
| 1777441817 | 8.89° C | 78% | 1021 hPa | 0 mm | - | 37 W/m² | - |
| 1777441216 | 8.33° C | 78% | 1021.1 hPa | 0 mm | - | 30 W/m² | - |
| 1777439417 | 8.33° C | 78% | 1021 hPa | 0 mm | - | 10 W/m² | - |
| 1777434016 | 7.78° C | 77% | 1021.5 hPa | 0 mm | - | 0 W/m² | - |
| 1777433416 | 7.78° C | 77% | 1021.5 hPa | 0 mm | - | 0 W/m² | - |
| 1777428616 | 8.33° C | 73% | 1022 hPa | 0 mm | - | 0 W/m² | - |
| 1777427436 | 8.33° C | 73% | 1022.2 hPa | 0 mm | - | 0 W/m² | - |
| 1777426816 | 8.33° C | 73% | 1022.2 hPa | 0 mm | - | 0 W/m² | - |
| 1777426236 | 8.89° C | 72% | 1022.4 hPa | 0 mm | - | 0 W/m² | - |
| 1777423818 | 8.89° C | 72% | 1022.6 hPa | 0 mm | - | 0 W/m² | - |
| 1777421418 | 9.44° C | 71% | 1022.9 hPa | 0 mm | - | 0 W/m² | - |
| 1777417217 | 11.11° C | 72% | 1023.3 hPa | 0 mm | - | 0 W/m² | - |
| 1777416637 | 11.11° C | 72% | 1023.2 hPa | 0 mm | - | 0 W/m² | - |
| 1777416037 | 11.11° C | 72% | 1023.3 hPa | 0 mm | - | 0 W/m² | - |
| 1777412417 | 11.67° C | 74% | 1023.6 hPa | 0 mm | - | 0 W/m² | - |
| 1777411237 | 11.67° C | 74% | 1023.3 hPa | 0 mm | - | 0 W/m² | - |
| 1777408217 | 12.22° C | 75% | 1023.4 hPa | 0 mm | - | 0 W/m² | - |
| 1777401617 | 12.22° C | 75% | 1022.9 hPa | 0 mm | - | 26 W/m² | - |
| 1777400416 | 12.78° C | 75% | 1022.8 hPa | 0 mm | - | 33 W/m² | - |
| 1777398037 | 12.78° C | 75% | 1023.1 hPa | 0 mm | - | 45 W/m² | - |
| 1777393216 | 12.78° C | 75% | 1023.7 hPa | 0 mm | - | 384 W/m² | - |
| 1777390816 | 12.78° C | 76% | 1023.9 hPa | 0 mm | - | 546 W/m² | - |
| 1777386016 | 12.78° C | 76% | 1024.3 hPa | 0 mm | - | 346 W/m² | - |
* Rain latest hour (hover to see other rain measurements)
** Current wind speed in m/s (hover to see current wind gust speed)